Location: Unspecified
(39.5650°N, 75.5970°W)
Time: 22:08:42
(UTC+00:00)

Daily predictions for brighter satellites

Satellite Brightness Start Highest point End
(mag) Time Altitude Azimuth Time Altitude Azimuth Time Altitude Azimuth
Cosmos 2239 Rocket 4.5 22:40:19 10° N 22:46:25 64° E 22:52:29 10° SSE
AQUARIUS 4.5 22:42:02 10° S 22:46:30 75° WSW 22:51:00 10° NNW
Cosmos 1242 Rocket 3.3 22:44:00 10° NNE 22:47:19 31° ENE 22:50:35 10° SE
BREEZE-M DEB (TANK) 3.3 22:40:50 10° SW 22:48:11 60° SSE 22:50:59 10° ENE
Cosmos 1626 3.5 22:44:45 10° NNW 22:48:19 45° W 22:51:52 10° SSW
Cosmos 1354 Rocket 4.0 22:43:07 10° NNW 22:48:22 82° ENE 22:53:36 10° SSE
Cosmos 2278 Rocket 2.9 22:43:47 10° SSE 22:48:47 33° ESE 22:53:48 10° NE
ATLAS 5 CENTAUR R/B 3.7 22:45:37 10° W 22:49:07 24° NW 22:52:58 10° NNE
Cosmos 1726 2.5 22:46:20 10° SSE 22:49:46 39° E 22:53:11 10° NNE
Cosmos 1606 Rocket 3.7 22:45:38 10° S 22:50:02 83° W 22:54:25 10° N
NOAA 12 4.1 22:46:51 10° SSE 22:52:05 75° ENE 22:57:24 10° N
Ariane Rocket 4.5 22:50:10 10° E 22:53:20 17° ENE 22:56:31 10° NNE
CZ-4C R/B 3.6 22:46:02 10° NW 22:53:26 66° WSW 23:01:41 10° SSE
Cosmos 1844 4.2 22:48:29 10° SSW 22:54:08 66° WNW 22:59:54 10° NNE
Cosmos 1821 Rocket 4.0 22:48:33 10° N 22:54:42 84° E 23:00:52 10° S
USA 238 DEB 4.3 22:54:38 10° S 23:00:28 34° ESE 23:06:27 10° NE
USA 238 4.3 22:54:46 10° S 23:00:35 33° ESE 23:06:33 10° NE
Nadezhda 3 Rocket 4.5 22:55:25 10° SSW 23:01:38 69° W 23:07:59 10° N
COBE Rocket 4.0 22:57:31 10° NNE 23:02:43 86° ESE 23:07:45 10° S
Cosmos 1758 Rocket 4.4 22:58:26 10° NNW 23:02:48 56° W 23:07:11 10° S
Cosmos 1934 Rocket 4.1 22:57:18 10° N 23:03:36 62° E 23:09:53 10° SSE
Cosmos 1271 Rocket 3.3 23:05:02 10° NNW 23:08:59 64° W 23:12:55 10° S
CSL-04 Rocket 3.9 23:03:55 10° SE 23:09:14 50° ENE 23:14:32 10° N
CZ-4 R/B 1.5 23:06:22 10° SSE 23:10:27 58° ENE 23:14:36 10° N
Cosmos 1535 Rocket 4.4 23:04:38 10° N 23:10:50 72° E 23:16:56 10° SSE
CZ-2D R/B 4.3 23:09:40 10° SE 23:12:47 24° ENE 23:15:56 10° NNE
Shenzhou-11 Module 2.6 23:12:42 10° WNW 23:15:20 39° N 23:16:48 21° ENE
Cosmos 1777 Rocket 4.3 23:11:16 10° N 23:16:15 43° ENE 23:21:10 10° SE
YAOGAN 1 2.6 23:15:36 10° SSE 23:19:50 56° ENE 23:24:05 10° N
SKYMED 2 3.7 23:15:58 10° N 23:20:20 78° WNW 23:24:39 10° SSW
Cosmos 1300 4.3 23:20:20 10° SE 23:21:46 17° ESE 23:21:46 17° ESE
BREEZE-M DEB (TANK) 3.7 23:09:26 10° SW 23:24:49 81° SE 23:28:00 18° ENE
YAOGAN 6 2.5 23:21:11 10° SSE 23:24:51 85° ENE 23:28:30 10° N
NOSS 3-2 (A) 3.8 23:20:20 10° S 23:25:30 38° ESE 23:30:58 11° NE
CZ-4 R/B 4.4 23:21:52 10° SSE 23:25:58 86° WSW 23:30:07 10° NNW
SL-4 R/B 3.4 23:25:21 10° WNW 23:28:48 32° SW 23:32:00 10° SSE
Cosmos 1833 Rocket 3.2 23:25:19 10° N 23:30:34 39° ENE 23:34:15 18° ESE
OAO 2 Rocket 4.2 23:26:56 10° W 23:31:56 44° SSW 23:35:36 18° SE
Cosmos 1703 3.3 23:31:06 10° N 23:35:03 83° W 23:38:57 10° S
H-2A R/B 3.9 23:37:38 14° NE 23:37:38 14° NE 23:39:20 10° NNE
Envisat 4.4 23:44:31 10° SSW 23:49:16 40° W 23:54:04 10° NNW
NOSS 3-2 (C) 3.8 23:44:15 10° S 23:49:23 37° ESE 23:51:12 30° ENE
Cosmos 482 Debris 4.1 23:45:13 10° NW 23:49:40 65° SW 23:50:33 41° SSE
Cosmos 1153 Rocket 4.4 23:45:18 10° N 23:51:24 62° E 23:57:27 10° SSE
Cosmos 44 4.2 23:47:50 10° S 23:51:31 29° SE 23:51:31 29° SE
